GPS BIIF-5

Last updated on Fri Jul 11 2025 00:02:31 GMT+0000 (Coordinated Universal Time)

1 39533U 14008A 25191.15830833 .00000048 00000+0 00000+0 0 9995 2 39533 53.6189 163.2668 0078794 226.2101 133.1065 2.00565082 82825
UTC large
Height (km)
Speed (km/s)
/
Latitude / Longitude
Inclination (degrees)
Orbital Period (minutes)
Azimuth
Elevation
Range (km)
Doppler Factor

Next 0 passes for location: London (51.5072 / 0.1276)

Sorry there are no passes over London.